AirNav   Everest Fuels
 
 475 users online  

43K Marion Municipal Airport
Marion, Kansas, USA

GOING TO MARION?


FAA INFORMATION EFFECTIVE 16 JUNE 2022

Location

FAA Identifier: 43K
Lat/Long: 38-20-15.4000N 096-59-17.7000W
38-20.256667N 096-59.295000W
38.3376111,-96.9882500
(estimated)
Elevation: 1390 ft. / 424 m (estimated)
Variation: 07E (1985)
From city: 2 miles SE of MARION, KS
Time zone: UTC -5 (UTC -6 during Standard Time)
Zip code: 66861

Airport Operations

Airport use: Open to the public
Activation date: 12/1945
Control tower: no
ARTCC: KANSAS CITY CENTER
FSS: WICHITA FLIGHT SERVICE STATION
NOTAMs facility: ICT (NOTAM-D service available)
Attendance: UNATNDD
PHONE AVBL 24 HRS.
Wind indicator: yes
Segmented circle: no
Beacon: white-green (lighted land airport)
Operates sunset to sunrise.

Airport Communications

CTAF: 122.9

Nearby radio navigation aids

VOR radial/distance  VOR name  Freq  Var
FRIr183/(38.4)FORT RILEY VOR109.4006E

 
NDB name  Hdg/Dist  Freq  Var  ID
HERINGTON195/22.940706EHRU .... .-. ..-

Airport Services

Fuel available: 100LL MOGAS
Parking: hangars and tiedowns
Airframe service: NONE
Powerplant service: NONE
Bottled oxygen: NONE
Bulk oxygen: NONE

Runway Information

Runway 17/35

Dimensions: 2573 x 40 ft. / 784 x 12 m
Surface: asphalt, in good condition
Runway edge lights: low intensity
Runway edge markings: RWY 35 ALIGNMENT NUMBERS FADED.
RUNWAY 17  RUNWAY 35
Latitude: 38-20.455545N38-20.031528N
Longitude: 096-59.227317W096-59.227317W
Elevation: 1382.0 ft.1378.0 ft.
Traffic pattern: leftleft
Runway heading: 173 magnetic, 180 true353 magnetic, 000 true
Markings: numbers only, in good conditionnumbers only, in good condition

Runway 3/21

Dimensions: 2745 x 95 ft. / 837 x 29 m
Surface: turf, in good condition
RY 03/21 IS SLIGHTLY ROUGH.
Runway edge markings: 03/21 THLDS & EDGES MKD WITH YELLOW PAINTED TIRES.
RUNWAY 3  RUNWAY 21
Traffic pattern: leftleft
Obstructions: 4 ft. fence
THE PROXIMITY OF THE FENCE TO THE RWY ESTABLISHES THE CONTROLLING OBSTRUCTION. THE 35' TO 40' TREES DIRECTLY BEHIND WOULD BE MORE OF A CONCERN FOR APPROACHING AIRCRAFT.
22 ft. pline, 735 ft. from runway, 170 ft. left of centerline, 33:1 slope to clear

Runway 13/31

Dimensions: 2722 x 50 ft. / 830 x 15 m
Surface: turf, in good condition
Runway edge markings: 13/31 THLD & EDGES MKD WITH YELLOW PAINTED TIRES.
RUNWAY 13  RUNWAY 31
Traffic pattern: leftleft
Obstructions: 4 ft. fence, 15 ft. from runwaynone

Runway 18/36

Dimensions: 2310 x 67 ft. / 704 x 20 m
Surface: turf, in good condition
Runway edge markings: RY 18/36 THLD DELINEATED WITH YELLOW PAINTED TIRES.
RUNWAY 18  RUNWAY 36
Latitude: 38-20.459450N38-20.079648N
Longitude: 096-59.352258W096-59.385003W
Elevation: 1380.0 ft.1378.0 ft.
Traffic pattern: leftleft
Runway heading: 177 magnetic, 184 true357 magnetic, 004 true
Obstructions: 4 ft. fence, 9 ft. from runway, 30 ft. left and right of centerline, 2:1 slope to clearnone

Airport Ownership and Management from official FAA records

Ownership: Publicly-owned
Owner: CITY OF MARION
208 EAST SANTA FE
MARION, KS 66861
Phone 620-382-3703
Manager: ROGER HOLTER
208 EAST SANTA FE
MARION, KS 66861
Phone 620-382-3703
MR.MAYFIELD IS CITY MGR. OF MARION KS.

Airport Operational Statistics

Aircraft based on the field: 17
Single engine airplanes: 16
Ultralights: 1
    
Aircraft operations: avg 25/day *
66% local general aviation
33% transient general aviation
<1% military
* for 12-month period ending 28 August 2019

Additional Remarks

A58-35 RWY 35 ROAD ABANDONED & IS GATED FM TRAFFIC. +4 FT FENCE; 70 FT FRM END OF RWY; BOTH SIDES OF RWY.
A58-17 +4' FENCE 5' FROM RWY END 30' L & R OF CNTRLEN; LOWERED AT RWY.
FOR CD CTC KANSAS CITY ARTCC AT 913-254-8508.

Instrument Procedures

There are no published instrument procedures at 43K.

Some nearby airports with instrument procedures:

KEWK - Newton City/County Airport (22 nm SW)
KHRU - Herington Regional Airport (23 nm N)
47K - Moundridge Municipal Airport (25 nm W)
KMPR - Mc Pherson Airport (33 nm W)
1K1 - Lloyd Stearman Field Airport (34 nm S)
 
Loc | Ops | Rwys | IFR | FBO | Links
Com | Nav | Svcs | Stats | Notes
Area around 43K (Marion Municipal Airport)
 
Road maps at: MapQuest Bing Google
 
Aerial photo
WARNING: Photo may not be current or correct
Aerial photo of 43K (Marion Municipal Airport)
Photo by Paul Hodson
Photo taken 21-Jan-2006
taken from a C182 from the northwest

Do you have a better or more recent aerial photo of Marion Municipal Airport that you would like to share? If so, please send us your photo.

 
Sectional chart

 
Airport distance calculator
Flying to Marion Municipal Airport? Find the distance to fly.

From to 43K

Sunrise and sunset
Times for 06-Jul-2022
 Local
(UTC-5)
 Zulu
(UTC)
Morning civil twilight05:4010:40
Sunrise06:1211:12
Sunset20:5401:54
Evening civil twilight21:2502:25

Current date and time
Zulu (UTC)  06-Jul-2022 08:19:05
Local (UTC-5)  06-Jul-2022 03:19:05
 
METAR
KEWK 
22nm SW 
060756Z AUTO 18012KT 10SM CLR 28/18 A2986 RMK AO2 SLP089 T02780178
KMPR 
33nm W 
060755Z AUTO 17011KT 10SM CLR 26/19 A2983 RMK AO2 T02600192
K1K1 
34nm S 
060755Z AUTO 18008G15KT 10SM CLR 27/17 A2986 RMK AO2 T02670171
KEQA 
35nm S 
060755Z AUTO 18010KT 10SM CLR 28/18 A2986 RMK AO2
KAAO 
37nm S 
060754Z AUTO 17011KT 10SM CLR 28/18 A2985 RMK AO2 SLP090 T02830178
KEMP 
37nm E 
060753Z AUTO 17013KT 10SM CLR 27/19 A2985 RMK AO2 SLP095 T02720194
KBEC 
40nm S 
060755Z AUTO 17010G16KT 10SM CLR 28/17 A2986 RMK AO2 LTG DSNT W T02750173
K3AU 
40nm S 
060755Z AUTO 17008KT 10SM CLR 27/16 A2987 RMK AO2
KSLN 
41nm NW 
060753Z AUTO 17014G22KT 10SM FEW120 29/19 A2983 RMK AO2 SLP082 T02940189
KFRI 
43nm N 
060756Z 02003KT 10SM CLR 26/23 A2986 RMK AO2A RAE08 SLP097 P0001 T02570226 FZRANO $
TAF
KSLN 
41nm NW 
060520Z 0606/0706 17012KT P6SM FEW100 FM060700 07010KT P6SM VCTS BKN100CB FM060900 12009KT P6SM VCTS BKN100CB FM061200 12009KT P6SM SCT100 FM062200 09009KT P6SM VCTS BKN080CB
KFRI 
43nm N 
060455Z 0604/0710 14009KT 9999 BKN120 QNH2982INS TEMPO 0610/0613 9000 -SHRA BKN100 BECMG 0619/0620 16010G20KT 9999 SCT100 QNH2972INS BECMG 0700/0701 15009KT 9999 SKC QNH2972INS TX36/0620Z TN24/0611Z
KHUT 
44nm W 
060520Z 0606/0706 17011KT P6SM FEW150 FM061800 18013G20KT P6SM SCT080
KIAB 
45nm S 
060200Z 0602/0708 19012G18KT 9999 FEW200 QNH2982INS BECMG 0605/0606 18009KT 9999 FEW200 WS020/21040KT QNH2984INS BECMG 0615/0616 21020G30KT 9999 FEW100 QNH2975INS BECMG 0702/0703 17012G18KT 9999 FEW100 QNH2978INS BECMG 0705/0706 17009KT 9999 SCT100 WS020/19040KT QNH2982INS TX39/0621Z TN25/0611Z
KICT 
46nm SW 
060520Z 0606/0706 17013KT P6SM SCT150 FM061600 18014G21KT P6SM FEW080
KMHK 
50nm N 
060520Z 0606/0706 14008KT P6SM SCT200
NOTAMs
Click for the latest NOTAMs
NOTAMs are issued by the DoD/FAA and will open in a separate window not controlled by AirNav.

 

 
 

Would you like to see your business listed on this page?

 If your business provides an interesting product or service to pilots, flight crews, aircraft, or users of the Marion Municipal Airport, you should consider listing it here.  To start the listing process, click on the button below
 
Add a business
 

Other Pages about Marion Municipal Airport

Update a link
 
Copyright © AirNav, LLC. All rights reserved. Privacy Policy  Contact